User: anonymous
Location: Bothell
(47.7630°N, 122.2040°W)
Time: 23:24:37
(UTC-07:00)
Language:

Oscar 16 - Orbit

View from above orbital plane
View from above orbital plane
View from above satellite
View from above satellite

Ground track
Ground track

The orbit data is extracted from the following two-line orbital elements,

1 20439U 90005D   14274.76746990  .00000218  00000-0  96538-4 0  1389
2 20439 098.5138 210.1279 0010641 198.3315 217.4568 14.32395357289743
Epoch (UTC): 01 October 2014 18:25:09
Eccentricity: 0.0010641
inclination: 98.5138°
perigee height: 776 km
apogee height: 791 km
right ascension of ascending node: 210.1279°
argument of perigee: 198.3315°
revolutions per day: 14.32395357
mean anomaly at epoch: 217.4568°
orbit number at epoch: 28974

The dashed part of the orbit path shows where the satellite is in the earth's shadow,  

DLR